StationID,Date,MaxTemp,MinTemp,Precipitation,Snowfall,SnowDepth
"NOE00134470","2002-08-01",78.62,59.72,,,
"NOE00134470","2002-08-02",79.52,61.88,,,
"NOE00134470","2002-08-03",77.18,64.22,,,
"NOE00134470","2002-08-04",73.04,59.18,,,
"NOE00134470","2002-08-05",68.18,60.98,,,
"NOE00134470","2002-08-07",69.62,56.84,,,
"NOE00134470","2002-08-08",70.88,59.18,,,
"NOE00134470","2002-08-09",71.60,61.16,,,
"NOE00134470","2002-08-10",75.20,61.16,,,
"NOE00134470","2002-08-11",66.74,60.26,,,
"NOE00134470","2002-08-12",68.54,57.56,,,
"NOE00134470","2002-08-13",66.20,58.46,,,
"NOE00134470","2002-08-14",67.64,56.84,,,
"NOE00134470","2002-08-15",74.30,57.38,,,
"NOE00134470","2002-08-16",69.26,60.44,,,
"NOE00134470","2002-08-17",74.66,60.26,,,
"NOE00134470","2002-08-18",78.80,65.84,,,
"NOE00134470","2002-08-19",79.88,62.60,,,
"NOE00134470","2002-08-22",72.86,59.00,,,
"NOE00134470","2002-08-23",76.10,60.98,,,
"NOE00134470","2002-08-24",76.82,59.00,,,
"NOE00134470","2002-08-25",68.18,59.72,,,
"NOE00134470","2002-08-26",64.22,58.46,,,
"NOE00134470","2002-08-28",63.50,53.24,,,
"NOE00134470","2002-08-29",63.50,58.28,,,
"NOE00134470","2002-08-30",61.88,53.60,,,
"NOE00134470","2002-08-31",59.36,52.34,,,
"NOE00134470","2002-09-01",60.98,52.34,,,
"NOE00134470","2002-09-02",58.10,54.32,,,
"NOE00134470","2002-09-03",65.12,57.02,,,
"NOE00134470","2002-09-04",66.20,57.02,,,
"NOE00134470","2002-09-05",66.02,55.76,,,
"NOE00134470","2002-09-06",60.26,51.80,,,
"NOE00134470","2002-09-07",60.62,51.98,,,
"NOE00134470","2002-09-08",71.78,48.02,,,
"NOE00134470","2002-09-09",72.50,56.12,,,
"NOE00134470","2002-09-10",72.68,57.74,,,
"NOE00134470","2002-09-11",71.42,54.68,,,
"NOE00134470","2002-09-12",65.48,55.04,,,
"NOE00134470","2002-09-16",59.36,54.14,,,
"NOE00134470","2002-09-17",56.66,51.08,,,
"NOE00134470","2002-09-18",56.30,49.64,,,
"NOE00134470","2002-09-19",52.70,44.06,,,
"NOE00134470","2002-09-20",56.84,46.76,,,
"NOE00134470","2002-09-21",56.30,46.04,,,
"NOE00134470","2002-09-22",57.92,42.98,,,
"NOE00134470","2002-09-23",53.06,43.16,,,
"NOE00134470","2002-09-24",53.96,46.58,,,
"NOE00134470","2002-09-25",53.24,47.66,,,
"NOE00134470","2002-09-26",54.50,37.58,,,
"NOE00134470","2002-09-27",53.24,47.12,,,
"NOE00134470","2002-09-28",55.94,50.54,,,
"NOE00134470","2002-09-29",55.94,52.88,,,
"NOE00134470","2002-09-30",55.94,52.16,,,
"NOE00134470","2002-10-01",55.22,53.78,,,
"NOE00134470","2002-10-02",60.08,53.96,,,
"NOE00134470","2002-10-03",58.10,50.18,,,
"NOE00134470","2002-10-04",55.22,50.00,,,
"NOE00134470","2002-10-05",57.02,45.32,,,
"NOE00134470","2002-10-06",51.44,43.88,,,
"NOE00134470","2002-10-07",51.44,38.48,,,
"NOE00134470","2002-10-08",48.02,44.24,,,
"NOE00134470","2002-10-09",47.30,39.56,,,
"NOE00134470","2002-10-10",49.10,39.38,,,
"NOE00134470","2002-10-11",50.36,39.02,,,
"NOE00134470","2002-10-12",49.46,35.78,,,
"NOE00134470","2002-10-13",47.66,40.46,,,
"NOE00134470","2002-10-14",47.48,39.92,,,
"NOE00134470","2002-10-15",44.96,36.14,,,
"NOE00134470","2002-10-16",46.40,32.90,,,
"NOE00134470","2002-10-17",46.58,33.26,,,
"NOE00134470","2002-10-18",42.26,34.16,,,
"NOE00134470","2002-10-19",37.76,29.66,,,
"NOE00134470","2002-10-20",37.22,31.28,,,
"NOE00134470","2002-10-21",39.92,33.08,,,
"NOE00134470","2002-10-22",41.90,36.86,,,
"NOE00134470","2002-10-23",49.28,36.68,,,
"NOE00134470","2002-10-24",50.54,38.12,,,
"NOE00134470","2002-10-25",46.58,37.94,,,
"NOE00134470","2002-10-26",48.02,38.66,,,
"NOE00134470","2002-10-27",46.58,39.02,,,
"NOE00134470","2002-10-28",45.32,38.12,,,
"NOE00134470","2002-10-29",43.70,36.14,,,
"NOE00134470","2002-10-30",46.04,38.66,,,
"NOE00134470","2002-10-31",45.68,39.92,,,
"NOE00134470","2002-11-01",45.50,37.94,,,
"NOE00134470","2002-11-02",42.44,33.62,,,
"NOE00134470","2002-11-03",46.22,31.64,,,
"NOE00134470","2002-11-04",44.06,40.10,,,
"NOE00134470","2002-11-05",44.06,39.02,,,
"NOE00134470","2002-11-06",48.74,43.88,,,
"NOE00134470","2002-11-07",46.40,41.18,,,
"NOE00134470","2002-11-09",41.36,32.72,,,
"NOE00134470","2002-11-10",39.56,36.32,,,
"NOE00134470","2002-11-11",37.22,32.18,,,
"NOE00134470","2002-11-12",39.92,30.74,,,
"NOE00134470","2002-11-13",39.56,28.76,,,
"NOE00134470","2002-11-14",35.60,27.86,,,
"NOE00134470","2002-11-15",39.20,29.12,,,
"NOE00134470","2002-11-16",42.62,38.66,,,
"NOE00134470","2002-11-17",41.72,35.60,,,
"NOE00134470","2002-11-18",38.12,28.22,,,
"NOE00134470","2002-11-19",35.60,25.52,,,
"NOE00134470","2002-11-20",33.26,27.32,,,
"NOE00134470","2002-11-21",42.80,26.24,,,
"NOE00134470","2002-11-22",42.44,34.16,,,
"NOE00134470","2002-11-23",41.18,37.04,,,
"NOE00134470","2002-11-24",42.44,36.32,,,
"NOE00134470","2002-11-25",43.16,33.44,,,
"NOE00134470","2002-11-26",43.88,39.92,,,
"NOE00134470","2002-11-27",43.70,35.78,,,
"NOE00134470","2002-11-28",48.20,41.72,,,
"NOE00134470","2002-11-29",43.34,38.66,,,
"NOE00134470","2002-11-30",43.16,37.04,,,
"NOE00134470","2002-12-01",41.00,36.32,,,
"NOE00134470","2002-12-02",40.82,38.66,,,
"NOE00134470","2002-12-03",44.06,39.02,,,
"NOE00134470","2002-12-04",45.50,41.90,,,
"NOE00134470","2002-12-05",45.32,39.92,,,
"NOE00134470","2002-12-06",41.00,32.36,,,
"NOE00134470","2002-12-07",35.78,32.54,,,
"NOE00134470","2002-12-08",32.90,25.34,,,
"NOE00134470","2002-12-09",29.12,24.26,,,
"NOE00134470","2002-12-10",30.38,18.14,,,
"NOE00134470","2002-12-11",35.06,21.56,,,
"NOE00134470","2002-12-12",32.90,20.12,,,
"NOE00134470","2002-12-13",30.92,24.62,,,
"NOE00134470","2002-12-14",35.96,25.70,,,
"NOE00134470","2002-12-15",35.42,31.46,,,
"NOE00134470","2002-12-16",35.24,30.56,,,
"NOE00134470","2002-12-17",37.40,29.84,,,
"NOE00134470","2002-12-18",39.56,33.26,,,
"NOE00134470","2002-12-19",43.34,33.26,,,
"NOE00134470","2002-12-20",43.52,32.90,,,
"NOE00134470","2002-12-21",34.52,23.90,,,
"NOE00134470","2002-12-22",33.08,23.90,,,
"NOE00134470","2002-12-23",39.56,31.82,,,
"NOE00134470","2002-12-24",40.64,39.02,,,
"NOE00134470","2002-12-25",43.52,40.10,,,
"NOE00134470","2002-12-26",44.42,40.10,,,
"NOE00134470","2002-12-27",49.28,39.02,,,
"NOE00134470","2002-12-28",48.38,32.36,,,
"NOE00134470","2002-12-29",36.50,31.10,,,
"NOE00134470","2002-12-31",33.98,30.92,,,
"NOE00134470","2003-01-01",35.06,30.38,,,
"NOE00134470","2003-01-03",22.64,17.60,,,
"NOE00134470","2003-01-04",28.76,17.96,,,
"NOE00134470","2003-01-05",39.92,26.60,,,
"NOE00134470","2003-01-08",40.46,32.00,,,
"NOE00134470","2003-01-09",41.72,35.96,,,
"NOE00134470","2003-01-10",38.84,31.46,,,
"NOE00134470","2003-01-11",44.06,33.08,,,
"NOE00134470","2003-01-12",43.52,37.22,,,
"NOE00134470","2003-01-13",42.08,34.88,,,
"NOE00134470","2003-01-14",45.86,37.22,,,
"NOE00134470","2003-01-15",45.86,36.50,,,
"NOE00134470","2003-01-16",43.52,30.56,,,
"NOE00134470","2003-01-17",45.68,33.44,,,
"NOE00134470","2003-01-18",43.70,37.04,,,
"NOE00134470","2003-01-19",42.44,36.50,,,
"NOE00134470","2003-01-20",41.36,34.52,,,
"NOE00134470","2003-01-21",42.98,33.80,,,
"NOE00134470","2003-01-22",39.56,31.10,,,
"NOE00134470","2003-01-23",35.96,25.52,,,
"NOE00134470","2003-01-24",46.04,27.50,,,
"NOE00134470","2003-01-25",45.68,39.02,,,
"NOE00134470","2003-01-26",41.54,36.68,,,
"NOE00134470","2003-01-27",44.78,37.94,,,
"NOE00134470","2003-01-28",41.54,30.92,,,
"NOE00134470","2003-01-29",37.58,28.58,,,
"NOE00134470","2003-01-30",30.74,25.70,,,
"NOE00134470","2003-01-31",30.56,17.96,,,
"NOE00134470","2003-02-01",35.42,30.02,,,
"NOE00134470","2003-02-02",37.22,31.64,,,
"NOE00134470","2003-02-03",34.52,30.74,,,
"NOE00134470","2003-02-04",33.08,24.62,,,
"NOE00134470","2003-02-05",32.18,27.50,,,
"NOE00134470","2003-02-06",36.50,29.84,,,
"NOE00134470","2003-02-07",41.18,33.62,,,
"NOE00134470","2003-02-08",45.32,39.74,,,
"NOE00134470","2003-02-09",45.14,38.84,,,
"NOE00134470","2003-02-10",41.18,36.68,,,
"NOE00134470","2003-02-11",41.72,36.50,,,
"NOE00134470","2003-02-12",40.28,35.42,,,
"NOE00134470","2003-02-13",40.46,37.76,,,
"NOE00134470","2003-02-14",38.30,35.42,,,
"NOE00134470","2003-02-15",38.30,35.78,,,
"NOE00134470","2003-02-16",36.86,33.80,,,
"NOE00134470","2003-02-17",38.30,32.18,,,
"NOE00134470","2003-02-18",39.56,27.14,,,
"NOE00134470","2003-02-19",39.20,27.32,,,
"NOE00134470","2003-02-22",41.90,34.16,,,
"NOE00134470","2003-02-23",37.58,26.24,,,
"NOE00134470","2003-02-24",40.64,31.28,,,
"NOE00134470","2003-02-25",44.06,33.62,,,
"NOE00134470","2003-02-26",48.38,28.94,,,
"NOE00134470","2003-02-27",43.16,30.56,,,
"NOE00134470","2003-02-28",40.46,26.06,,,
"NOE00134470","2003-03-01",46.22,29.30,,,
"NOE00134470","2003-03-02",46.04,36.86,,,
"NOE00134470","2003-03-03",40.46,33.98,,,
"NOE00134470","2003-03-04",38.12,33.26,,,
"NOE00134470","2003-03-05",43.70,34.16,,,
"NOE00134470","2003-03-06",42.44,39.02,,,
"NOE00134470","2003-03-07",43.16,37.04,,,
"NOE00134470","2003-03-08",43.52,39.02,,,
"NOE00134470","2003-03-09",41.54,38.12,,,
"NOE00134470","2003-03-10",43.88,40.46,,,
"NOE00134470","2003-03-11",45.32,40.46,,,
"NOE00134470","2003-03-12",41.72,33.80,,,
"NOE00134470","2003-03-13",44.42,33.62,,,
"NOE00134470","2003-03-14",41.72,32.90,,,
"NOE00134470","2003-03-15",44.60,30.92,,,
"NOE00134470","2003-03-16",40.64,34.34,,,
"NOE00134470","2003-03-17",42.44,34.52,,,
"NOE00134470","2003-03-18",41.90,33.44,,,
"NOE00134470","2003-03-19",42.98,36.32,,,
"NOE00134470","2003-03-20",42.98,32.36,,,
"NOE00134470","2003-03-21",39.38,36.50,,,
"NOE00134470","2003-03-22",41.00,39.02,,,
"NOE00134470","2003-03-23",41.72,38.66,,,
"NOE00134470","2003-03-24",42.62,37.22,,,
"NOE00134470","2003-03-25",47.84,34.70,,,
"NOE00134470","2003-03-26",45.68,39.92,,,
"NOE00134470","2003-03-27",45.50,39.20,,,
"NOE00134470","2003-03-28",45.50,36.68,,,
"NOE00134470","2003-03-29",46.22,35.96,,,
"NOE00134470","2003-03-30",42.08,32.36,,,
"NOE00134470","2003-03-31",41.54,32.72,,,
"NOE00134470","2003-04-01",42.80,36.14,,,
"NOE00134470","2003-04-02",40.10,33.44,,,
"NOE00134470","2003-04-03",40.64,31.82,,,
"NOE00134470","2003-04-04",44.42,33.44,,,
"NOE00134470","2003-04-05",41.00,32.00,,,
"NOE00134470","2003-04-06",42.98,32.36,,,
"NOE00134470","2003-04-07",44.42,34.52,,,
"NOE00134470","2003-04-08",43.88,31.10,,,
"NOE00134470","2003-04-09",47.48,31.10,,,
"NOE00134470","2003-04-10",51.26,32.54,,,
"NOE00134470","2003-04-11",45.86,38.12,,,
"NOE00134470","2003-04-12",47.48,38.12,,,
"NOE00134470","2003-04-13",49.46,39.20,,,
"NOE00134470","2003-04-14",55.76,38.84,,,
"NOE00134470","2003-04-16",61.88,43.34,,,
"NOE00134470","2003-04-17",57.74,43.70,,,
"NOE00134470","2003-04-18",55.58,39.56,,,
"NOE00134470","2003-04-19",54.32,42.98,,,
"NOE00134470","2003-04-20",56.84,37.58,,,
"NOE00134470","2003-04-21",64.76,42.26,,,
"NOE00134470","2003-04-22",57.38,39.20,,,
"NOE00134470","2003-04-23",57.56,37.22,,,
"NOE00134470","2003-04-24",57.02,37.04,,,
"NOE00134470","2003-04-25",51.62,40.46,,,
"NOE00134470","2003-04-26",54.32,44.06,,,
"NOE00134470","2003-04-27",51.26,42.98,,,
"NOE00134470","2003-04-28",52.70,42.26,,,
"NOE00134470","2003-04-29",53.42,44.06,,,
"NOE00134470","2003-05-01",45.14,39.02,,,
"NOE00134470","2003-05-02",42.80,30.56,,,
"NOE00134470","2003-05-03",52.34,30.38,,,
"NOE00134470","2003-05-04",49.46,36.68,,,
"NOE00134470","2003-05-05",56.30,41.90,,,
"NOE00134470","2003-05-06",48.02,42.62,,,
"NOE00134470","2003-05-07",49.46,40.10,,,
"NOE00134470","2003-05-08",46.76,40.64,,,
"NOE00134470","2003-05-09",50.54,42.26,,,
"NOE00134470","2003-05-10",49.28,41.00,,,
"NOE00134470","2003-05-11",50.54,41.72,,,
"NOE00134470","2003-05-12",56.66,42.08,,,
"NOE00134470","2003-05-13",51.26,39.56,,,
"NOE00134470","2003-05-14",50.54,40.64,,,
"NOE00134470","2003-05-15",47.66,37.40,,,
"NOE00134470","2003-05-16",50.90,33.98,,,
"NOE00134470","2003-05-17",50.18,38.66,,,
"NOE00134470","2003-05-18",62.24,47.66,,,
"NOE00134470","2003-05-19",62.60,49.64,,,
"NOE00134470","2003-05-20",52.88,45.86,,,
"NOE00134470","2003-05-21",53.42,45.68,,,
"NOE00134470","2003-05-23",60.26,46.94,,,
"NOE00134470","2003-05-25",54.32,47.66,,,
"NOE00134470","2003-05-26",55.22,46.94,,,
"NOE00134470","2003-05-27",53.60,46.94,,,
"NOE00134470","2003-05-28",60.62,45.32,,,
"NOE00134470","2003-05-29",56.12,49.28,,,
"NOE00134470","2003-05-30",51.08,45.14,,,
"NOE00134470","2003-05-31",54.50,42.08,,,
"NOE00134470","2003-06-01",65.66,43.16,,,
"NOE00134470","2003-06-02",74.66,49.82,,,
"NOE00134470","2003-06-03",64.22,53.96,,,
"NOE00134470","2003-06-05",63.86,51.26,,,
"NOE00134470","2003-06-06",62.06,51.44,,,
"NOE00134470","2003-06-07",61.16,51.62,,,
"NOE00134470","2003-06-08",58.82,53.24,,,
"NOE00134470","2003-06-09",63.68,50.18,,,
"NOE00134470","2003-06-10",56.84,50.90,,,
"NOE00134470","2003-06-11",60.62,51.44,,,
"NOE00134470","2003-06-12",56.48,51.62,,,
"NOE00134470","2003-06-13",56.48,48.74,,,
"NOE00134470","2003-06-14",59.00,51.08,,,
"NOE00134470","2003-06-15",57.56,47.66,,,
"NOE00134470","2003-06-16",57.92,49.82,,,
"NOE00134470","2003-06-17",63.14,48.38,,,
"NOE00134470","2003-06-18",64.04,51.26,,,
"NOE00134470","2003-06-19",56.66,50.72,,,
"NOE00134470","2003-06-21",52.88,48.92,,,
"NOE00134470","2003-06-22",58.46,51.44,,,
"NOE00134470","2003-06-23",58.28,50.54,,,
"NOE00134470","2003-06-24",57.92,52.16,,,
"NOE00134470","2003-06-25",56.30,51.62,,,
"NOE00134470","2003-06-27",67.46,52.88,,,
"NOE00134470","2003-06-28",73.22,53.78,,,
"NOE00134470","2003-06-29",69.44,55.04,,,
"NOE00134470","2003-06-30",62.78,53.24,,,
"NOE00134470","2003-07-01",68.36,51.80,,,
"NOE00134470","2003-07-02",73.40,59.36,,,
"NOE00134470","2003-07-03",72.50,56.48,,,
"NOE00134470","2003-07-04",74.12,59.72,,,
"NOE00134470","2003-07-05",68.72,55.40,,,
"NOE00134470","2003-07-06",60.98,52.70,,,
"NOE00134470","2003-07-07",59.18,50.36,,,
"NOE00134470","2003-07-09",60.44,53.06,,,
"NOE00134470","2003-07-10",68.54,49.10,,,
"NOE00134470","2003-07-11",65.30,55.94,,,
"NOE00134470","2003-07-13",62.96,51.62,,,
"NOE00134470","2003-07-14",68.18,53.60,,,
"NOE00134470","2003-07-16",81.14,59.72,,,
"NOE00134470","2003-07-17",81.50,67.46,,,
"NOE00134470","2003-07-18",74.48,63.68,,,
"NOE00134470","2003-07-19",71.60,60.26,,,
"NOE00134470","2003-07-20",76.28,61.34,,,
"NOE00134470","2003-07-21",69.80,61.52,,,
"NOE00134470","2003-07-22",65.84,56.12,,,
"NOE00134470","2003-07-23",64.22,54.50,,,
"NOE00134470","2003-07-24",70.88,59.18,,,
"NOE00134470","2003-07-25",65.84,57.38,,,
"NOE00134470","2003-07-26",67.10,57.38,,,
"NOE00134470","2003-07-27",65.84,58.46,,,
"NOE00134470","2003-07-28",63.14,54.50,,,
"NOE00134470","2003-07-29",58.10,42.08,,,
"NOE00134470","2003-08-03",64.94,55.58,,,
"NOE00134470","2003-08-05",64.40,52.70,,,
"NOE00134470","2003-08-18",69.62,52.70,,,
"NOE00134470","2003-08-19",62.96,56.30,,,
"NOE00134470","2003-08-25",62.42,57.02,,,
"NOE00134470","2003-08-27",60.44,46.94,,,
"NOE00134470","2003-08-28",62.42,53.06,,,
"NOE00134470","2003-08-29",62.60,51.80,,,
"NOE00134470","2003-08-30",60.44,51.80,,,
"NOE00134470","2003-08-31",58.28,51.08,,,
"NOE00134470","2003-09-01",57.74,43.34,,,
"NOE00134470","2003-09-05",62.24,54.68,,,
"NOE00134470","2003-09-06",64.76,55.04,,,
"NOE00134470","2003-09-07",63.32,54.86,,,
"NOE00134470","2003-09-08",62.24,50.36,,,
"NOE00134470","2003-09-09",65.12,52.88,,,
"NOE00134470","2003-09-10",63.68,56.48,,,
"NOE00134470","2003-09-11",62.96,47.84,,,
"NOE00134470","2003-09-12",60.44,53.60,,,
"NOE00134470","2003-09-13",60.98,50.36,,,
"NOE00134470","2003-09-14",61.16,56.48,,,
"NOE00134470","2003-09-15",60.26,51.26,,,
"NOE00134470","2003-09-16",57.02,50.72,,,
"NOE00134470","2003-09-17",60.26,50.72,,,
"NOE00134470","2003-09-18",61.70,53.24,,,
"NOE00134470","2003-09-19",57.92,46.58,,,
"NOE00134470","2003-09-20",59.72,40.28,,,
"NOE00134470","2003-09-21",57.56,50.54,,,
"NOE00134470","2003-09-22",55.40,46.22,,,
"NOE00134470","2003-09-23",49.28,41.90,,,
"NOE00134470","2003-09-25",55.40,51.80,,,
"NOE00134470","2003-09-26",54.32,45.86,,,
"NOE00134470","2003-09-27",51.44,42.08,,,
"NOE00134470","2003-09-28",52.34,34.16,,,
"NOE00134470","2003-09-29",51.44,43.34,,,
"NOE00134470","2003-09-30",49.64,45.86,,,
"NOE00134470","2003-10-01",51.26,42.62,,,
"NOE00134470","2003-10-02",52.16,44.24,,,
"NOE00134470","2003-10-03",52.70,46.94,,,
"NOE00134470","2003-10-04",49.28,42.26,,,
"NOE00134470","2003-10-05",45.86,39.92,,,
"NOE00134470","2003-10-06",50.54,42.26,,,
"NOE00134470","2003-10-07",55.76,42.44,,,
"NOE00134470","2003-10-08",51.08,41.36,,,
"NOE00134470","2003-10-09",47.12,41.90,,,
"NOE00134470","2003-10-10",50.36,42.62,,,
"NOE00134470","2003-10-11",48.56,44.24,,,
"NOE00134470","2003-10-12",50.18,44.06,,,
"NOE00134470","2003-10-13",49.64,33.80,,,
"NOE00134470","2003-10-14",51.62,39.56,,,
"NOE00134470","2003-10-15",48.92,35.96,,,
"NOE00134470","2003-10-16",47.84,34.70,,,
"NOE00134470","2003-10-18",46.22,41.36,,,
"NOE00134470","2003-10-19",45.32,36.86,,,
"NOE00134470","2003-10-20",42.62,30.92,,,
"NOE00134470","2003-10-21",42.44,29.48,,,
"NOE00134470","2003-10-22",41.90,32.00,,,
"NOE00134470","2003-10-23",39.38,29.12,,,
"NOE00134470","2003-10-24",42.26,34.88,,,
"NOE00134470","2003-10-25",42.44,38.30,,,
"NOE00134470","2003-10-26",41.90,30.38,,,
"NOE00134470","2003-10-28",50.90,44.06,,,
"NOE00134470","2003-10-29",47.12,40.64,,,
"NOE00134470","2003-10-30",44.60,37.40,,,
"NOE00134470","2003-10-31",44.78,37.58,,,
"NOE00134470","2003-11-01",43.52,37.22,,,
"NOE00134470","2003-11-02",48.92,37.22,,,
"NOE00134470","2003-11-03",50.72,44.24,,,
"NOE00134470","2003-11-04",46.58,41.90,,,
"NOE00134470","2003-11-05",56.66,44.24,,,
"NOE00134470","2003-11-06",59.18,50.36,,,
"NOE00134470","2003-11-07",55.94,44.06,,,
"NOE00134470","2003-11-08",51.08,39.20,,,
"NOE00134470","2003-11-09",60.26,43.88,,,
"NOE00134470","2003-11-10",49.10,44.42,,,
"NOE00134470","2003-11-11",49.28,46.04,,,
"NOE00134470","2003-11-12",46.94,37.58,,,
"NOE00134470","2003-11-13",45.50,35.42,,,
"NOE00134470","2003-11-14",48.38,39.74,,,
"NOE00134470","2003-11-15",48.74,41.36,,,
"NOE00134470","2003-11-16",44.24,36.86,,,
"NOE00134470","2003-11-17",43.52,40.82,,,
"NOE00134470","2003-11-18",49.28,39.92,,,
"NOE00134470","2003-11-19",49.46,45.50,,,
"NOE00134470","2003-11-21",46.94,39.20,,,
"NOE00134470","2003-11-22",44.60,39.92,,,
"NOE00134470","2003-11-23",44.42,36.14,,,
"NOE00134470","2003-11-24",44.42,33.98,,,
"NOE00134470","2003-11-25",46.94,41.54,,,
"NOE00134470","2003-11-26",51.80,41.90,,,
"NOE00134470","2003-11-27",54.50,45.68,,,
"NOE00134470","2003-11-28",48.74,40.28,,,
"NOE00134470","2003-11-29",50.54,40.82,,,
"NOE00134470","2003-11-30",51.62,44.96,,,
"NOE00134470","2003-12-01",46.40,37.76,,,
"NOE00134470","2003-12-02",40.64,32.72,,,
"NOE00134470","2003-12-03",47.48,39.92,,,
"NOE00134470","2003-12-04",49.64,42.80,,,
"NOE00134470","2003-12-05",46.76,36.14,,,
"NOE00134470","2003-12-06",39.92,31.10,,,
"NOE00134470","2003-12-07",44.06,35.06,,,
"NOE00134470","2003-12-08",46.76,40.28,,,
"NOE00134470","2003-12-09",45.86,42.98,,,
"NOE00134470","2003-12-10",49.28,44.24,,,
"NOE00134470","2003-12-11",46.22,32.54,,,
"NOE00134470","2003-12-12",36.86,31.64,,,
"NOE00134470","2003-12-13",47.30,33.62,,,
"NOE00134470","2003-12-14",47.12,29.84,,,
"NOE00134470","2003-12-15",38.30,30.74,,,
"NOE00134470","2003-12-16",42.62,31.64,,,
"NOE00134470","2003-12-17",48.74,38.66,,,
"NOE00134470","2003-12-19",47.48,39.92,,,
"NOE00134470","2003-12-20",41.90,32.72,,,
"NOE00134470","2003-12-21",36.32,31.46,,,
"NOE00134470","2003-12-22",32.90,26.24,,,
"NOE00134470","2003-12-23",39.02,27.86,,,
"NOE00134470","2003-12-24",46.58,37.22,,,
"NOE00134470","2003-12-25",46.22,37.76,,,
"NOE00134470","2003-12-26",43.88,38.66,,,
"NOE00134470","2003-12-27",44.78,34.16,,,
"NOE00134470","2003-12-28",41.36,32.18,,,
"NOE00134470","2003-12-29",33.80,26.06,,,
"NOE00134470","2003-12-30",31.10,24.80,,,
"NOE00134470","2003-12-31",33.62,24.62,,,
"NOE00134470","2004-01-01",39.02,31.64,,,
"NOE00134470","2004-01-02",37.94,34.88,,,
"NOE00134470","2004-01-03",37.76,33.08,,,
"NOE00134470","2004-01-04",36.86,31.64,,,
"NOE00134470","2004-01-05",39.74,31.10,,,
"NOE00134470","2004-01-06",43.52,36.50,,,
"NOE00134470","2004-01-07",41.36,37.40,,,
"NOE00134470","2004-01-08",49.28,40.28,,,
"NOE00134470","2004-01-09",49.28,43.16,,,
"NOE00134470","2004-01-10",43.52,39.38,,,
"NOE00134470","2004-01-11",48.56,39.56,,,
"NOE00134470","2004-01-12",42.62,36.68,,,
"NOE00134470","2004-01-13",42.98,37.22,,,
"NOE00134470","2004-01-14",41.18,38.84,,,
"NOE00134470","2004-01-15",40.46,33.08,,,
"NOE00134470","2004-01-16",35.96,27.32,,,
"NOE00134470","2004-01-17",35.78,24.26,,,
"NOE00134470","2004-01-18",38.30,28.22,,,
"NOE00134470","2004-01-19",38.12,29.84,,,
"NOE00134470","2004-01-20",34.16,28.94,,,
"NOE00134470","2004-01-21",34.34,31.46,,,
"NOE00134470","2004-01-22",39.56,33.98,,,
"NOE00134470","2004-01-23",46.40,37.94,,,
"NOE00134470","2004-01-24",48.20,39.56,,,
"NOE00134470","2004-01-25",42.08,35.60,,,
"NOE00134470","2004-01-26",36.32,31.46,,,
"NOE00134470","2004-01-27",32.72,24.26,,,
"NOE00134470","2004-01-28",26.42,20.66,,,
"NOE00134470","2004-01-29",27.68,14.54,,,
"NOE00134470","2004-01-30",34.52,26.42,,,
"NOE00134470","2004-01-31",35.78,-8.50,,,
"NOE00134470","2004-02-01",-3.64,-11.56,,,
"NOE00134470","2004-02-02",3.56,-6.52,,,
"NOE00134470","2004-02-03",28.76,-9.04,,,
"NOE00134470","2004-02-04",26.78,7.70,,,
"NOE00134470","2004-02-05",39.92,18.32,,,
"NOE00134470","2004-02-06",41.00,32.72,,,
"NOE00134470","2004-02-07",39.56,28.22,,,
"NOE00134470","2004-02-08",34.70,26.42,,,
"NOE00134470","2004-02-09",33.98,24.44,,,
"NOE00134470","2004-02-10",34.34,30.02,,,
"NOE00134470","2004-02-11",35.24,17.06,,,
"NOE00134470","2004-02-12",32.00,32.00,,,
"NOE00134470","2004-02-13",32.00,32.00,,,
"NOE00134470","2004-02-14",32.00,32.00,,,
"NOE00134470","2004-02-15",32.00,32.00,,,
"NOE00134470","2004-02-16",35.60,32.00,,,
"NOE00134470","2004-02-17",41.36,35.60,,,
"NOE00134470","2004-02-18",44.24,31.82,,,
"NOE00134470","2004-02-19",40.10,34.16,,,
"NOE00134470","2004-02-20",39.74,37.22,,,
"NOE00134470","2004-02-21",40.64,33.80,,,
"NOE00134470","2004-02-22",35.42,27.86,,,
"NOE00134470","2004-02-23",33.08,23.72,,,
"NOE00134470","2004-02-24",37.04,30.20,,,
"NOE00134470","2004-02-25",37.94,32.18,,,
"NOE00134470","2004-02-26",36.68,30.02,,,
"NOE00134470","2004-02-27",34.70,23.36,,,
"NOE00134470","2004-02-28",33.08,20.30,,,
"NOE00134470","2004-02-29",32.36,26.42,,,
"NOE00134470","2004-03-01",41.36,32.00,,,
"NOE00134470","2004-03-02",41.72,36.14,,,
"NOE00134470","2004-03-03",40.46,30.92,,,
"NOE00134470","2004-03-04",40.28,34.70,,,
"NOE00134470","2004-03-05",37.22,31.28,,,
"NOE00134470","2004-03-06",37.76,31.46,,,
"NOE00134470","2004-03-07",44.78,31.10,,,
"NOE00134470","2004-03-08",42.44,29.12,,,
"NOE00134470","2004-03-09",42.26,32.18,,,
"NOE00134470","2004-03-10",40.82,28.04,,,
"NOE00134470","2004-03-11",44.78,30.38,,,
"NOE00134470","2004-03-12",43.52,36.50,,,
"NOE00134470","2004-03-13",43.52,34.16,,,
"NOE00134470","2004-03-14",42.98,32.18,,,
"NOE00134470","2004-03-15",45.86,40.28,,,
"NOE00134470","2004-03-16",46.40,39.74,,,
"NOE00134470","2004-03-17",46.94,42.62,,,
"NOE00134470","2004-03-18",46.22,42.26,,,
"NOE00134470","2004-03-19",46.22,37.40,,,
"NOE00134470","2004-03-20",43.16,36.14,,,
"NOE00134470","2004-03-21",42.62,29.48,,,
"NOE00134470","2004-03-22",43.88,32.36,,,
"NOE00134470","2004-03-23",45.86,30.20,,,
"NOE00134470","2004-03-24",43.34,29.84,,,
"NOE00134470","2004-03-25",42.80,30.74,,,
"NOE00134470","2004-03-26",38.12,33.44,,,
"NOE00134470","2004-03-27",44.06,36.32,,,
"NOE00134470","2004-03-28",43.16,32.72,,,
"NOE00134470","2004-03-29",46.58,35.78,,,
"NOE00134470","2004-03-30",46.76,42.62,,,
"NOE00134470","2004-03-31",57.02,34.16,,,
"NOE00134470","2004-04-01",56.30,39.74,,,
"NOE00134470","2004-04-02",53.78,43.16,,,